owner,sensor,date,latitude,longitude,vertical_datum,wind_speed,wind_to_direction,wind_speed_of_gust,qcFlag 
NDBC,ioos:station:wmo:42020:1,2012-01-01T01:00:00Z,26.9680,-96.6940,5.0,5.7,190.0,,'1111122,1111122,1111122' 
NDBC,ioos:station:wmo:42020:1,2012-01-01T02:00:00Z,26.9680,-96.6940,5.0,4.6,190.0,,'1111122,1111122,1111122' 
NDBC,ioos:station:wmo:42020:1,2012-01-01T04:00:00Z,26.9680,-96.6940,5.0,5.7,180.0,,'1111122,1111122,1111122' 
NDBC,ioos:station:wmo:42020:1,2012-01-01T05:00:00Z,26.9680,-96.6940,5.0,4.6,180.0,,'1111122,1111122,1111122' 
NDBC,ioos:station:wmo:42020:1,2012-01-01T06:00:00Z,26.9680,-96.6940,5.0,4.6,190.0,,'1111122,1111122,1111122' 
NDBC,ioos:station:wmo:42020:1,2012-01-01T07:00:00Z,26.9680,-96.6940,5.0,4.6,180.0,,'1111122,1111122,1111122' 
NDBC,ioos:station:wmo:42020:1,2012-01-01T08:00:00Z,26.9680,-96.6940,5.0,3.6,180.0,,'1111122,1111122,1111122' 
NDBC,ioos:station:wmo:42020:1,2012-01-01T09:00:00Z,26.9680,-96.6940,5.0,2.6,180.0,,'1111122,1111122,1111122' 
NDBC,ioos:station:wmo:42020:1,2012-01-01T10:00:00Z,26.9680,-96.6940,5.0,2.6,170.0,,'1111122,1111122,1111122' 
NDBC,ioos:station:wmo:42020:1,2012-01-01T14:00:00Z,26.9680,-96.6940,5.0,9.8,340.0,,'1111122,1111122,1111122' 
NDBC,ioos:station:wmo:42020:1,2012-01-01T15:00:00Z,26.9680,-96.6940,5.0,10.8,350.0,,'1111122,1111122,1111122' 
NDBC,ioos:station:wmo:42020:1,2012-01-01T16:00:00Z,26.9680,-96.6940,5.0,11.8,360.0,,'1111122,1111122,1111122' 
NDBC,ioos:station:wmo:42020:1,2012-01-01T17:00:00Z,26.9680,-96.6940,5.0,11.8,10.0,,'1111122,1111122,1111122' 
NDBC,ioos:station:wmo:42020:1,2012-01-01T18:00:00Z,26.9680,-96.6940,5.0,11.8,10.0,,'1111122,1111122,1111122' 
NDBC,ioos:station:wmo:42020:1,2012-01-01T19:00:00Z,26.9680,-96.6940,5.0,11.8,10.0,,'1111122,1111122,1111122' 
NDBC,ioos:station:wmo:42020:1,2012-01-01T20:00:00Z,26.9680,-96.6940,5.0,11.8,10.0,,'1111122,1111122,1111122' 
NDBC,ioos:station:wmo:42020:1,2012-01-01T21:00:00Z,26.9680,-96.6940,5.0,10.8,20.0,,'1111122,1111122,1111122' 
NDBC,ioos:station:wmo:42020:1,2012-01-01T22:00:00Z,26.9680,-96.6940,5.0,10.8,20.0,,'1111122,1111122,1111122' 
NDBC,ioos:station:wmo:42020:1,2012-01-01T23:00:00Z,26.9680,-96.6940,5.0,11.8,10.0,,'1111122,1111122,1111122' 
NDBC,ioos:station:wmo:42020:1,2012-01-02T00:00:00Z,26.9680,-96.6940,5.0,11.8,10.0,,'1111122,1111122,1111122' 
NDBC,ioos:station:wmo:42020:1,2012-01-02T01:00:00Z,26.9680,-96.6940,5.0,11.8,360.0,,'1111122,1111122,1111122' 
NDBC,ioos:station:wmo:42020:1,2012-01-02T02:00:00Z,26.9680,-96.6940,5.0,11.8,10.0,,'1111122,1111122,1111122' 
NDBC,ioos:station:wmo:42020:1,2012-01-02T03:00:00Z,26.9680,-96.6940,5.0,11.8,10.0,,'1111122,1111122,1111122' 
NDBC,ioos:station:wmo:42020:1,2012-01-02T04:00:00Z,26.9680,-96.6940,5.0,11.8,10.0,,'1111122,1111122,1111122' 
NDBC,ioos:station:wmo:42020:1,2012-01-02T05:00:00Z,26.9680,-96.6940,5.0,11.8,20.0,,'1111122,1111122,1111122' 
NDBC,ioos:station:wmo:42020:1,2012-01-02T11:00:00Z,26.9680,-96.6940,5.0,12.9,30.0,,'1111122,1111122,1111122' 
NDBC,ioos:station:wmo:42020:1,2012-01-02T12:00:00Z,26.9680,-96.6940,5.0,12.9,30.0,,'1111122,1111122,1111122' 
NDBC,ioos:station:wmo:42020:1,2012-01-02T13:00:00Z,26.9680,-96.6940,5.0,12.9,20.0,,'1111122,1111122,1111122' 
NDBC,ioos:station:wmo:42020:1,2012-01-02T14:00:00Z,26.9680,-96.6940,5.0,12.9,30.0,,'1111122,1111122,1111122' 
NDBC,ioos:station:wmo:42020:1,2012-01-02T15:00:00Z,26.9680,-96.6940,5.0,12.9,30.0,,'1111122,1111122,1111122' 
NDBC,ioos:station:wmo:42020:1,2012-01-02T17:00:00Z,26.9680,-96.6940,5.0,10.8,30.0,,'1111122,1111122,1111122' 
NDBC,ioos:station:wmo:42020:1,2012-01-02T18:00:00Z,26.9680,-96.6940,5.0,10.8,10.0,,'1111122,1111122,1111122' 
NDBC,ioos:station:wmo:42020:1,2012-01-02T19:00:00Z,26.9680,-96.6940,5.0,9.8,20.0,,'1111122,1111122,1111122' 
NDBC,ioos:station:wmo:42020:1,2012-01-02T20:00:00Z,26.9680,-96.6940,5.0,8.7,20.0,,'1111122,1111122,1111122' 
NDBC,ioos:station:wmo:42020:1,2012-01-02T21:00:00Z,26.9680,-96.6940,5.0,7.7,10.0,,'1111122,1111122,1111122' 
NDBC,ioos:station:wmo:42020:1,2012-01-02T22:00:00Z,26.9680,-96.6940,5.0,5.7,360.0,,'1111122,1111122,1111122' 
NDBC,ioos:station:wmo:42020:1,2012-01-02T23:00:00Z,26.9680,-96.6940,5.0,5.7,350.0,,'1111122,1111122,1111122' 
NDBC,ioos:station:wmo:42020:1,2012-01-03T00:00:00Z,26.9680,-96.6940,5.0,6.7,330.0,,'1111122,1111122,1111122' 
NDBC,ioos:station:wmo:42020:1,2012-01-03T01:00:00Z,26.9680,-96.6940,5.0,5.7,330.0,,'1111122,1111122,1111122' 
NDBC,ioos:station:wmo:42020:1,2012-01-03T02:00:00Z,26.9680,-96.6940,5.0,6.7,330.0,,'1111122,1111122,1111122' 
NDBC,ioos:station:wmo:42020:1,2012-01-03T03:00:00Z,26.9680,-96.6940,5.0,6.7,330.0,,'1111122,1111122,1111122' 
NDBC,ioos:station:wmo:42020:1,2012-01-03T04:00:00Z,26.9680,-96.6940,5.0,6.7,330.0,,'1111122,1111122,1111122' 
NDBC,ioos:station:wmo:42020:1,2012-01-03T05:00:00Z,26.9680,-96.6940,5.0,8.7,350.0,,'1111122,1111122,1111122' 
NDBC,ioos:station:wmo:42020:1,2012-01-03T06:00:00Z,26.9680,-96.6940,5.0,7.7,350.0,,'1111122,1111122,1111122' 
NDBC,ioos:station:wmo:42020:1,2012-01-03T07:00:00Z,26.9680,-96.6940,5.0,7.7,10.0,,'1111122,1111122,1111122' 
NDBC,ioos:station:wmo:42020:1,2012-01-03T08:00:00Z,26.9680,-96.6940,5.0,7.7,360.0,,'1111122,1111122,1111122' 
NDBC,ioos:station:wmo:42020:1,2012-01-03T09:00:00Z,26.9680,-96.6940,5.0,6.7,10.0,,'1111122,1111122,1111122' 
NDBC,ioos:station:wmo:42020:1,2012-01-03T10:00:00Z,26.9680,-96.6940,5.0,6.7,20.0,,'1111122,1111122,1111122' 
NDBC,ioos:station:wmo:42020:1,2012-01-03T13:00:00Z,26.9680,-96.6940,5.0,6.7,40.0,,'1111122,1111122,1111122' 
NDBC,ioos:station:wmo:42020:1,2012-01-03T14:00:00Z,26.9680,-96.6940,5.0,6.7,40.0,,'1111122,1111122,1111122' 
NDBC,ioos:station:wmo:42020:1,2012-01-03T18:00:00Z,26.9680,-96.6940,5.0,4.6,90.0,,'1111122,1111122,1111122' 
NDBC,ioos:station:wmo:42020:1,2012-01-03T19:00:00Z,26.9680,-96.6940,5.0,4.6,100.0,,'1111122,1111122,1111122' 
NDBC,ioos:station:wmo:42020:1,2012-01-03T20:00:00Z,26.9680,-96.6940,5.0,3.6,110.0,,'1111122,1111122,1111122' 
NDBC,ioos:station:wmo:42020:1,2012-01-03T21:00:00Z,26.9680,-96.6940,5.0,3.6,110.0,,'1111122,1111122,1111122' 
NDBC,ioos:station:wmo:42020:1,2012-01-03T23:00:00Z,26.9680,-96.6940,5.0,3.6,150.0,,'1111122,1111122,1111122' 
NDBC,ioos:station:wmo:42020:1,2012-01-04T00:00:00Z,26.9680,-96.6940,5.0,3.6,160.0,,'1111122,1111122,1111122' 
NDBC,ioos:station:wmo:42020:1,2012-01-04T01:00:00Z,26.9680,-96.6940,5.0,5.7,180.0,,'1111122,1111122,1111122' 
NDBC,ioos:station:wmo:42020:1,2012-01-04T02:00:00Z,26.9680,-96.6940,5.0,6.7,180.0,,'1111122,1111122,1111122' 
NDBC,ioos:station:wmo:42020:1,2012-01-04T03:00:00Z,26.9680,-96.6940,5.0,6.7,180.0,,'1111122,1111122,1111122' 
NDBC,ioos:station:wmo:42020:1,2012-01-04T04:00:00Z,26.9680,-96.6940,5.0,8.7,190.0,,'1111122,1111122,1111122' 
NDBC,ioos:station:wmo:42020:1,2012-01-04T05:00:00Z,26.9680,-96.6940,5.0,8.7,200.0,,'1111122,1111122,1111122' 
NDBC,ioos:station:wmo:42020:1,2012-01-04T06:00:00Z,26.9680,-96.6940,5.0,7.7,190.0,,'1111122,1111122,1111122' 
NDBC,ioos:station:wmo:42020:1,2012-01-04T07:00:00Z,26.9680,-96.6940,5.0,9.8,200.0,,'1111122,1111122,1111122' 
NDBC,ioos:station:wmo:42020:1,2012-01-04T08:00:00Z,26.9680,-96.6940,5.0,9.8,210.0,,'1111122,1111122,1111122' 
NDBC,ioos:station:wmo:42020:1,2012-01-04T09:00:00Z,26.9680,-96.6940,5.0,9.8,210.0,,'1111122,1111122,1111122' 
NDBC,ioos:station:wmo:42020:1,2012-01-04T10:00:00Z,26.9680,-96.6940,5.0,9.8,210.0,,'1111122,1111122,1111122' 
NDBC,ioos:station:wmo:42020:1,2012-01-04T11:00:00Z,26.9680,-96.6940,5.0,9.8,220.0,,'1111122,1111122,1111122' 
NDBC,ioos:station:wmo:42020:1,2012-01-04T12:00:00Z,26.9680,-96.6940,5.0,7.7,220.0,,'1111122,1111122,1111122' 
NDBC,ioos:station:wmo:42020:1,2012-01-04T13:00:00Z,26.9680,-96.6940,5.0,7.7,220.0,,'1111122,1111122,1111122' 
NDBC,ioos:station:wmo:42020:1,2012-01-04T14:00:00Z,26.9680,-96.6940,5.0,6.7,210.0,,'1111122,1111122,1111122' 
NDBC,ioos:station:wmo:42020:1,2012-01-04T20:00:00Z,26.9680,-96.6940,5.0,8.7,190.0,,'1111122,1111122,1111122' 
NDBC,ioos:station:wmo:42020:1,2012-01-04T23:00:00Z,26.9680,-96.6940,5.0,4.6,190.0,,'1111122,1111122,1111122' 
NDBC,ioos:station:wmo:42020:1,2012-01-05T00:00:00Z,26.9680,-96.6940,5.0,4.6,190.0,,'1111122,1111122,1111122' 
NDBC,ioos:station:wmo:42020:1,2012-01-05T10:00:00Z,26.9680,-96.6940,5.0,2.6,200.0,,'1111122,1111122,1111122' 
NDBC,ioos:station:wmo:42020:1,2012-01-05T11:00:00Z,26.9680,-96.6940,5.0,2.6,190.0,,'1111122,1111122,1111122' 
NDBC,ioos:station:wmo:42020:1,2012-01-05T12:00:00Z,26.9680,-96.6940,5.0,1.5,180.0,,'1111122,1111122,1111122' 
NDBC,ioos:station:wmo:42020:1,2012-01-05T13:00:00Z,26.9680,-96.6940,5.0,1.5,190.0,,'1111122,1111122,1111122' 
NDBC,ioos:station:wmo:42020:1,2012-01-05T14:00:00Z,26.9680,-96.6940,5.0,3.6,180.0,,'1111122,1111122,1111122' 
NDBC,ioos:station:wmo:42020:1,2012-01-05T15:00:00Z,26.9680,-96.6940,5.0,2.6,170.0,,'1111122,1111122,1111122' 
NDBC,ioos:station:wmo:42020:1,2012-01-05T21:00:00Z,26.9680,-96.6940,5.0,3.6,190.0,,'1111122,1111122,1111122' 
NDBC,ioos:station:wmo:42020:1,2012-01-05T23:00:00Z,26.9680,-96.6940,5.0,4.6,180.0,,'1111122,1111122,1111122' 
NDBC,ioos:station:wmo:42020:1,2012-01-06T00:00:00Z,26.9680,-96.6940,5.0,4.6,170.0,,'1111122,1111122,1111122' 
NDBC,ioos:station:wmo:42020:1,2012-01-06T01:00:00Z,26.9680,-96.6940,5.0,5.7,180.0,,'1111122,1111122,1111122' 
NDBC,ioos:station:wmo:42020:1,2012-01-06T02:00:00Z,26.9680,-96.6940,5.0,6.7,170.0,,'1111122,1111122,1111122' 
NDBC,ioos:station:wmo:42020:1,2012-01-06T03:00:00Z,26.9680,-96.6940,5.0,5.7,170.0,,'1111122,1111122,1111122' 
NDBC,ioos:station:wmo:42020:1,2012-01-06T04:00:00Z,26.9680,-96.6940,5.0,7.7,170.0,,'1111122,1111122,1111122' 
NDBC,ioos:station:wmo:42020:1,2012-01-06T05:00:00Z,26.9680,-96.6940,5.0,7.7,180.0,,'1111122,1111122,1111122' 
NDBC,ioos:station:wmo:42020:1,2012-01-06T06:00:00Z,26.9680,-96.6940,5.0,6.7,190.0,,'1111122,1111122,1111122' 
NDBC,ioos:station:wmo:42020:1,2012-01-06T07:00:00Z,26.9680,-96.6940,5.0,5.7,170.0,,'1111122,1111122,1111122' 
NDBC,ioos:station:wmo:42020:1,2012-01-06T08:00:00Z,26.9680,-96.6940,5.0,6.7,200.0,,'1111122,1111122,1111122' 
NDBC,ioos:station:wmo:42020:1,2012-01-06T09:00:00Z,26.9680,-96.6940,5.0,6.7,190.0,,'1111122,1111122,1111122' 
NDBC,ioos:station:wmo:42020:1,2012-01-06T10:00:00Z,26.9680,-96.6940,5.0,5.7,190.0,,'1111122,1111122,1111122' 
NDBC,ioos:station:wmo:42020:1,2012-01-06T11:00:00Z,26.9680,-96.6940,5.0,4.6,190.0,,'1111122,1111122,1111122' 
NDBC,ioos:station:wmo:42020:1,2012-01-06T12:00:00Z,26.9680,-96.6940,5.0,5.7,210.0,,'1111122,1111122,1111122' 
NDBC,ioos:station:wmo:42020:1,2012-01-06T13:00:00Z,26.9680,-96.6940,5.0,6.7,260.0,,'1111122,1111122,1111122' 
NDBC,ioos:station:wmo:42020:1,2012-01-06T14:00:00Z,26.9680,-96.6940,5.0,5.7,260.0,,'1111122,1111122,1111122' 
NDBC,ioos:station:wmo:42020:1,2012-01-06T15:00:00Z,26.9680,-96.6940,5.0,4.6,250.0,,'1111122,1111122,1111122' 
NDBC,ioos:station:wmo:42020:1,2012-01-06T16:00:00Z,26.9680,-96.6940,5.0,3.6,270.0,,'1111122,1111122,1111122' 
NDBC,ioos:station:wmo:42020:1,2012-01-06T17:00:00Z,26.9680,-96.6940,5.0,1.5,260.0,,'1111122,1111122,1111122' 
NDBC,ioos:station:wmo:42020:1,2012-01-06T18:00:00Z,26.9680,-96.6940,5.0,0.5,240.0,,'1111122,1111122,1111122' 
NDBC,ioos:station:wmo:42020:1,2012-01-06T19:00:00Z,26.9680,-96.6940,5.0,1.5,160.0,,'1111122,1111122,1111122' 
NDBC,ioos:station:wmo:42020:1,2012-01-06T20:00:00Z,26.9680,-96.6940,5.0,6.7,200.0,,'1111122,1111122,1111122' 
NDBC,ioos:station:wmo:42020:1,2012-01-06T21:00:00Z,26.9680,-96.6940,5.0,7.7,220.0,,'1111122,1111122,1111122' 
NDBC,ioos:station:wmo:42020:1,2012-01-06T22:00:00Z,26.9680,-96.6940,5.0,7.7,210.0,,'1111122,1111122,1111122' 
NDBC,ioos:station:wmo:42020:1,2012-01-07T00:00:00Z,26.9680,-96.6940,5.0,7.7,220.0,,'1111122,1111122,1111122' 
NDBC,ioos:station:wmo:42020:1,2012-01-07T03:00:00Z,26.9680,-96.6940,5.0,4.6,200.0,,'1111122,1111122,1111122' 
NDBC,ioos:station:wmo:42020:1,2012-01-07T04:00:00Z,26.9680,-96.6940,5.0,6.7,190.0,,'1111122,1111122,1111122' 
NDBC,ioos:station:wmo:42020:1,2012-01-07T05:00:00Z,26.9680,-96.6940,5.0,7.7,170.0,,'1111122,1111122,1111122' 
NDBC,ioos:station:wmo:42020:1,2012-01-07T06:00:00Z,26.9680,-96.6940,5.0,6.7,180.0,,'1111122,1111122,1111122' 
NDBC,ioos:station:wmo:42020:1,2012-01-07T07:00:00Z,26.9680,-96.6940,5.0,5.7,180.0,,'1111122,1111122,1111122' 
NDBC,ioos:station:wmo:42020:1,2012-01-07T08:00:00Z,26.9680,-96.6940,5.0,5.7,180.0,,'1111122,1111122,1111122' 
NDBC,ioos:station:wmo:42020:1,2012-01-07T09:00:00Z,26.9680,-96.6940,5.0,4.6,180.0,,'1111122,1111122,1111122' 
NDBC,ioos:station:wmo:42020:1,2012-01-07T10:00:00Z,26.9680,-96.6940,5.0,4.6,190.0,,'1111122,1111122,1111122' 
NDBC,ioos:station:wmo:42020:1,2012-01-07T11:00:00Z,26.9680,-96.6940,5.0,4.6,190.0,,'1111122,1111122,1111122' 
NDBC,ioos:station:wmo:42020:1,2012-01-07T12:00:00Z,26.9680,-96.6940,5.0,5.7,200.0,,'1111122,1111122,1111122' 
NDBC,ioos:station:wmo:42020:1,2012-01-07T13:00:00Z,26.9680,-96.6940,5.0,3.6,230.0,,'1111122,1111122,1111122' 
NDBC,ioos:station:wmo:42020:1,2012-01-07T14:00:00Z,26.9680,-96.6940,5.0,1.5,270.0,,'1111122,1111122,1111122' 
NDBC,ioos:station:wmo:42020:1,2012-01-07T15:00:00Z,26.9680,-96.6940,5.0,1.5,250.0,,'1111122,1111122,1111122' 
NDBC,ioos:station:wmo:42020:1,2012-01-07T16:00:00Z,26.9680,-96.6940,5.0,1.5,200.0,,'1111122,1111122,1111122' 
NDBC,ioos:station:wmo:42020:1,2012-01-07T17:00:00Z,26.9680,-96.6940,5.0,1.5,210.0,,'1111122,1111122,1111122' 
NDBC,ioos:station:wmo:42020:1,2012-01-07T18:00:00Z,26.9680,-96.6940,5.0,2.6,240.0,,'1111122,1111122,1111122' 
NDBC,ioos:station:wmo:42020:1,2012-01-07T19:00:00Z,26.9680,-96.6940,5.0,3.6,270.0,,'1111122,1111122,1111122' 
NDBC,ioos:station:wmo:42020:1,2012-01-07T20:00:00Z,26.9680,-96.6940,5.0,2.6,250.0,,'1111122,1111122,1111122' 
NDBC,ioos:station:wmo:42020:1,2012-01-07T21:00:00Z,26.9680,-96.6940,5.0,2.6,230.0,,'1111122,1111122,1111122' 
NDBC,ioos:station:wmo:42020:1,2012-01-07T22:00:00Z,26.9680,-96.6940,5.0,1.5,210.0,,'1111122,1111122,1111122' 
NDBC,ioos:station:wmo:42020:1,2012-01-07T23:00:00Z,26.9680,-96.6940,5.0,1.5,180.0,,'1111122,1111122,1111122' 
NDBC,ioos:station:wmo:42020:1,2012-01-08T00:00:00Z,26.9680,-96.6940,5.0,1.5,170.0,,'1111122,1111122,1111122' 
NDBC,ioos:station:wmo:42020:1,2012-01-08T01:00:00Z,26.9680,-96.6940,5.0,2.6,170.0,,'1111122,1111122,1111122' 
NDBC,ioos:station:wmo:42020:1,2012-01-08T02:00:00Z,26.9680,-96.6940,5.0,3.6,170.0,,'1111122,1111122,1111122' 
NDBC,ioos:station:wmo:42020:1,2012-01-08T03:00:00Z,26.9680,-96.6940,5.0,3.6,150.0,,'1111122,1111122,1111122' 
NDBC,ioos:station:wmo:42020:1,2012-01-08T04:00:00Z,26.9680,-96.6940,5.0,3.6,170.0,,'1111122,1111122,1111122' 
NDBC,ioos:station:wmo:42020:1,2012-01-08T05:00:00Z,26.9680,-96.6940,5.0,4.6,170.0,,'1111122,1111122,1111122' 
NDBC,ioos:station:wmo:42020:1,2012-01-08T06:00:00Z,26.9680,-96.6940,5.0,5.7,180.0,,'1111122,1111122,1111122' 
NDBC,ioos:station:wmo:42020:1,2012-01-08T07:00:00Z,26.9680,-96.6940,5.0,4.6,170.0,,'1111122,1111122,1111122' 
NDBC,ioos:station:wmo:42020:1,2012-01-08T08:00:00Z,26.9680,-96.6940,5.0,4.6,190.0,,'1111122,1111122,1111122' 
NDBC,ioos:station:wmo:42020:1,2012-01-08T09:00:00Z,26.9680,-96.6940,5.0,4.6,190.0,,'1111122,1111122,1111122' 
NDBC,ioos:station:wmo:42020:1,2012-01-08T10:00:00Z,26.9680,-96.6940,5.0,4.6,180.0,,'1111122,1111122,1111122' 
NDBC,ioos:station:wmo:42020:1,2012-01-08T11:00:00Z,26.9680,-96.6940,5.0,4.6,190.0,,'1111122,1111122,1111122' 
NDBC,ioos:station:wmo:42020:1,2012-01-08T12:00:00Z,26.9680,-96.6940,5.0,4.6,180.0,,'1111122,1111122,1111122' 
NDBC,ioos:station:wmo:42020:1,2012-01-08T13:00:00Z,26.9680,-96.6940,5.0,4.6,180.0,,'1111122,1111122,1111122' 
NDBC,ioos:station:wmo:42020:1,2012-01-08T14:00:00Z,26.9680,-96.6940,5.0,4.6,170.0,,'1111122,1111122,1111122' 
NDBC,ioos:station:wmo:42020:1,2012-01-08T15:00:00Z,26.9680,-96.6940,5.0,3.6,160.0,,'1111122,1111122,1111122' 
NDBC,ioos:station:wmo:42020:1,2012-01-08T16:00:00Z,26.9680,-96.6940,5.0,3.6,150.0,,'1111122,1111122,1111122' 
NDBC,ioos:station:wmo:42020:1,2012-01-08T17:00:00Z,26.9680,-96.6940,5.0,4.6,150.0,,'1111122,1111122,1111122' 
NDBC,ioos:station:wmo:42020:1,2012-01-08T18:00:00Z,26.9680,-96.6940,5.0,4.6,150.0,,'1111122,1111122,1111122' 
NDBC,ioos:station:wmo:42020:1,2012-01-08T20:00:00Z,26.9680,-96.6940,5.0,4.6,160.0,,'1111122,1111122,1111122' 
NDBC,ioos:station:wmo:42020:1,2012-01-08T21:00:00Z,26.9680,-96.6940,5.0,5.7,150.0,,'1111122,1111122,1111122' 
NDBC,ioos:station:wmo:42020:1,2012-01-08T22:00:00Z,26.9680,-96.6940,5.0,6.7,150.0,,'1111122,1111122,1111122' 
NDBC,ioos:station:wmo:42020:1,2012-01-08T23:00:00Z,26.9680,-96.6940,5.0,7.7,150.0,,'1111122,1111122,1111122' 
NDBC,ioos:station:wmo:42020:1,2012-01-09T00:00:00Z,26.9680,-96.6940,5.0,6.7,140.0,,'1111122,1111122,1111122' 
NDBC,ioos:station:wmo:42020:1,2012-01-09T01:00:00Z,26.9680,-96.6940,5.0,7.7,140.0,,'1111122,1111122,1111122' 
NDBC,ioos:station:wmo:42020:1,2012-01-09T02:00:00Z,26.9680,-96.6940,5.0,6.7,140.0,,'1111122,1111122,1111122' 
NDBC,ioos:station:wmo:42020:1,2012-01-09T03:00:00Z,26.9680,-96.6940,5.0,6.7,140.0,,'1111122,1111122,1111122' 
NDBC,ioos:station:wmo:42020:1,2012-01-09T04:00:00Z,26.9680,-96.6940,5.0,5.7,130.0,,'1111122,1111122,1111122' 
NDBC,ioos:station:wmo:42020:1,2012-01-09T05:00:00Z,26.9680,-96.6940,5.0,7.7,140.0,,'1111122,1111122,1111122' 
NDBC,ioos:station:wmo:42020:1,2012-01-09T06:00:00Z,26.9680,-96.6940,5.0,7.7,150.0,,'1111122,1111122,1111122' 
NDBC,ioos:station:wmo:42020:1,2012-01-09T07:00:00Z,26.9680,-96.6940,5.0,6.7,160.0,,'1111122,1111122,1111122' 
NDBC,ioos:station:wmo:42020:1,2012-01-09T08:00:00Z,26.9680,-96.6940,5.0,7.7,150.0,,'1111122,1111122,1111122' 
NDBC,ioos:station:wmo:42020:1,2012-01-09T15:00:00Z,26.9680,-96.6940,5.0,10.8,160.0,,'1111122,1111122,1111122' 
NDBC,ioos:station:wmo:42020:1,2012-01-09T16:00:00Z,26.9680,-96.6940,5.0,9.8,160.0,,'1111122,1111122,1111122' 
NDBC,ioos:station:wmo:42020:1,2012-01-09T17:00:00Z,26.9680,-96.6940,5.0,9.8,170.0,,'1111122,1111122,1111122' 
NDBC,ioos:station:wmo:42020:1,2012-01-09T18:00:00Z,26.9680,-96.6940,5.0,8.7,160.0,,'1111122,1111122,1111122' 
NDBC,ioos:station:wmo:42020:1,2012-01-09T19:00:00Z,26.9680,-96.6940,5.0,8.7,170.0,,'1111122,1111122,1111122' 
NDBC,ioos:station:wmo:42020:1,2012-01-09T20:00:00Z,26.9680,-96.6940,5.0,7.7,160.0,,'1111122,1111122,1111122' 
NDBC,ioos:station:wmo:42020:1,2012-01-09T21:00:00Z,26.9680,-96.6940,5.0,9.8,150.0,,'1111122,1111122,1111122' 
NDBC,ioos:station:wmo:42020:1,2012-01-09T22:00:00Z,26.9680,-96.6940,5.0,4.6,270.0,,'1111122,1111122,1111122' 
NDBC,ioos:station:wmo:42020:1,2012-01-09T23:00:00Z,26.9680,-96.6940,5.0,2.6,270.0,,'1111122,1111122,1111122' 
NDBC,ioos:station:wmo:42020:1,2012-01-10T00:00:00Z,26.9680,-96.6940,5.0,0.5,280.0,,'1111122,1111122,1111122' 
NDBC,ioos:station:wmo:42020:1,2012-01-10T01:00:00Z,26.9680,-96.6940,5.0,5.7,270.0,,'1111122,1111122,1111122' 
NDBC,ioos:station:wmo:42020:1,2012-01-10T03:00:00Z,26.9680,-96.6940,5.0,10.8,300.0,,'1111122,1111122,1111122' 
NDBC,ioos:station:wmo:42020:1,2012-01-10T04:00:00Z,26.9680,-96.6940,5.0,10.8,300.0,,'1111122,1111122,1111122' 
NDBC,ioos:station:wmo:42020:1,2012-01-10T05:00:00Z,26.9680,-96.6940,5.0,10.8,300.0,,'1111122,1111122,1111122' 
NDBC,ioos:station:wmo:42020:1,2012-01-10T06:00:00Z,26.9680,-96.6940,5.0,12.9,300.0,,'1111122,1111122,1111122' 
NDBC,ioos:station:wmo:42020:1,2012-01-10T07:00:00Z,26.9680,-96.6940,5.0,12.9,310.0,,'1111122,1111122,1111122' 
NDBC,ioos:station:wmo:42020:1,2012-01-10T08:00:00Z,26.9680,-96.6940,5.0,11.8,300.0,,'1111122,1111122,1111122' 
NDBC,ioos:station:wmo:42020:1,2012-01-10T09:00:00Z,26.9680,-96.6940,5.0,12.9,300.0,,'1111122,1111122,1111122' 
NDBC,ioos:station:wmo:42020:1,2012-01-10T11:00:00Z,26.9680,-96.6940,5.0,11.8,310.0,,'1111122,1111122,1111122' 
NDBC,ioos:station:wmo:42020:1,2012-01-10T12:00:00Z,26.9680,-96.6940,5.0,10.8,300.0,,'1111122,1111122,1111122' 
NDBC,ioos:station:wmo:42020:1,2012-01-10T13:00:00Z,26.9680,-96.6940,5.0,10.8,300.0,,'1111122,1111122,1111122' 
NDBC,ioos:station:wmo:42020:1,2012-01-10T14:00:00Z,26.9680,-96.6940,5.0,10.8,290.0,,'1111122,1111122,1111122' 
NDBC,ioos:station:wmo:42020:1,2012-01-10T15:00:00Z,26.9680,-96.6940,5.0,11.8,290.0,,'1111122,1111122,1111122' 
NDBC,ioos:station:wmo:42020:1,2012-01-10T16:00:00Z,26.9680,-96.6940,5.0,10.8,290.0,,'1111122,1111122,1111122' 
NDBC,ioos:station:wmo:42020:1,2012-01-10T17:00:00Z,26.9680,-96.6940,5.0,10.8,300.0,,'1111122,1111122,1111122' 
NDBC,ioos:station:wmo:42020:1,2012-01-10T18:00:00Z,26.9680,-96.6940,5.0,9.8,300.0,,'1111122,1111122,1111122' 
NDBC,ioos:station:wmo:42020:1,2012-01-10T19:00:00Z,26.9680,-96.6940,5.0,9.8,300.0,,'1111122,1111122,1111122' 
NDBC,ioos:station:wmo:42020:1,2012-01-10T20:00:00Z,26.9680,-96.6940,5.0,8.7,300.0,,'1111122,1111122,1111122' 
NDBC,ioos:station:wmo:42020:1,2012-01-10T21:00:00Z,26.9680,-96.6940,5.0,8.7,300.0,,'1111122,1111122,1111122' 
NDBC,ioos:station:wmo:42020:1,2012-01-10T22:00:00Z,26.9680,-96.6940,5.0,8.7,300.0,,'1111122,1111122,1111122' 
NDBC,ioos:station:wmo:42020:1,2012-01-10T23:00:00Z,26.9680,-96.6940,5.0,8.7,300.0,,'1111122,1111122,1111122' 
NDBC,ioos:station:wmo:42020:1,2012-01-11T00:00:00Z,26.9680,-96.6940,5.0,8.7,290.0,,'1111122,1111122,1111122' 
NDBC,ioos:station:wmo:42020:1,2012-01-11T01:00:00Z,26.9680,-96.6940,5.0,7.7,290.0,,'1111122,1111122,1111122' 
NDBC,ioos:station:wmo:42020:1,2012-01-11T02:00:00Z,26.9680,-96.6940,5.0,6.7,280.0,,'1111122,1111122,1111122' 
NDBC,ioos:station:wmo:42020:1,2012-01-11T03:00:00Z,26.9680,-96.6940,5.0,8.7,280.0,,'1111122,1111122,1111122' 
NDBC,ioos:station:wmo:42020:1,2012-01-11T04:00:00Z,26.9680,-96.6940,5.0,9.8,270.0,,'1111122,1111122,1111122' 
NDBC,ioos:station:wmo:42020:1,2012-01-11T05:00:00Z,26.9680,-96.6940,5.0,8.7,280.0,,'1111122,1111122,1111122' 
NDBC,ioos:station:wmo:42020:1,2012-01-11T06:00:00Z,26.9680,-96.6940,5.0,9.8,280.0,,'1111122,1111122,1111122' 
NDBC,ioos:station:wmo:42020:1,2012-01-11T07:00:00Z,26.9680,-96.6940,5.0,9.8,280.0,,'1111122,1111122,1111122' 
NDBC,ioos:station:wmo:42020:1,2012-01-11T08:00:00Z,26.9680,-96.6940,5.0,8.7,280.0,,'1111122,1111122,1111122' 
NDBC,ioos:station:wmo:42020:1,2012-01-11T09:00:00Z,26.9680,-96.6940,5.0,8.7,290.0,,'1111122,1111122,1111122' 
NDBC,ioos:station:wmo:42020:1,2012-01-11T10:00:00Z,26.9680,-96.6940,5.0,7.7,290.0,,'1111122,1111122,1111122' 
NDBC,ioos:station:wmo:42020:1,2012-01-11T11:00:00Z,26.9680,-96.6940,5.0,9.8,290.0,,'1111122,1111122,1111122' 
NDBC,ioos:station:wmo:42020:1,2012-01-11T12:00:00Z,26.9680,-96.6940,5.0,8.7,280.0,,'1111122,1111122,1111122' 
NDBC,ioos:station:wmo:42020:1,2012-01-11T13:00:00Z,26.9680,-96.6940,5.0,9.8,270.0,,'1111122,1111122,1111122' 
NDBC,ioos:station:wmo:42020:1,2012-01-11T14:00:00Z,26.9680,-96.6940,5.0,9.8,270.0,,'1111122,1111122,1111122' 
NDBC,ioos:station:wmo:42020:1,2012-01-11T15:00:00Z,26.9680,-96.6940,5.0,8.7,270.0,,'1111122,1111122,1111122' 
NDBC,ioos:station:wmo:42020:1,2012-01-11T21:00:00Z,26.9680,-96.6940,5.0,8.7,230.0,,'1111122,1111122,1111122' 
NDBC,ioos:station:wmo:42020:1,2012-01-11T23:00:00Z,26.9680,-96.6940,5.0,8.7,230.0,,'1111122,1111122,1111122' 
NDBC,ioos:station:wmo:42020:1,2012-01-12T00:00:00Z,26.9680,-96.6940,5.0,8.7,230.0,,'1111122,1111122,1111122' 
NDBC,ioos:station:wmo:42020:1,2012-01-12T01:00:00Z,26.9680,-96.6940,5.0,9.8,230.0,,'1111122,1111122,1111122' 
NDBC,ioos:station:wmo:42020:1,2012-01-12T02:00:00Z,26.9680,-96.6940,5.0,8.7,220.0,,'1111122,1111122,1111122' 
NDBC,ioos:station:wmo:42020:1,2012-01-12T03:00:00Z,26.9680,-96.6940,5.0,9.8,220.0,,'1111122,1111122,1111122' 
NDBC,ioos:station:wmo:42020:1,2012-01-12T04:00:00Z,26.9680,-96.6940,5.0,10.8,220.0,,'1111122,1111122,1111122' 
NDBC,ioos:station:wmo:42020:1,2012-01-12T05:00:00Z,26.9680,-96.6940,5.0,9.8,220.0,,'1111122,1111122,1111122' 
NDBC,ioos:station:wmo:42020:1,2012-01-12T06:00:00Z,26.9680,-96.6940,5.0,9.8,230.0,,'1111122,1111122,1111122' 
NDBC,ioos:station:wmo:42020:1,2012-01-12T07:00:00Z,26.9680,-96.6940,5.0,9.8,230.0,,'1111122,1111122,1111122' 
NDBC,ioos:station:wmo:42020:1,2012-01-12T08:00:00Z,26.9680,-96.6940,5.0,9.8,290.0,,'1111122,1111122,1111122' 
NDBC,ioos:station:wmo:42020:1,2012-01-12T09:00:00Z,26.9680,-96.6940,5.0,10.8,330.0,,'1111122,1111122,1111122' 